Regional Weather Roundup
Issued by NWS Wakefield, VA

Home | Current Version | Previous Version | Text Only | Print | Product List | Glossary Off
Versions: 1 2 3 4 5 6 7 8 9 10 11 12 13 14 15 16 17 18 19 20 21 22 23 24 25 26 27 28 29 30 31 32 33 34 35 36 37 38 39 40 41 42 43 44 45 46 47 48

000
ASUS41 KAKQ 020210
RWRAKQ

REGIONAL WEATHER ROUNDUP
NATIONAL WEATHER SERVICE WAKEFIELD VA
1000 PM EDT WED OCT 01 2014

Note: "fair" indicates few or no clouds below 12,000 feet with no
significant weather and/or obstructions to visibility. * = Denotes
station may not report precipitation (e.g., rain,snow,etc.),
thunder or fog.

VAZ042-051-052>054-056-020300-
NORTHERN VIRGINIA

CITY           SKY/WX    TMP DP  RH WIND       PRES   REMARKS
WASH NATIONAL  PTCLDY    69  60  73 CALM      30.07R
DULLES         MOCLDY    64  60  87 NE5       30.07R
FORT BELVOIR   PTCLDY    61  61 100 CALM      30.07R
QUANTICO       MOCLDY    65  62  90 NW5       30.07R
FREDERICKSBRG* MOCLDY    65  64  99 CALM      30.05R
STAFFORD*      MOCLDY    62  62 100 CALM      30.10R
WARRENTON      CLOUDY    64  64 100 NE3       30.05S
CULPEPER*      MOCLDY    64  63  94 CALM      30.07R
MANASSAS*      MOCLDY    63  63 100 CALM      30.06R
LEESBURG*      PTCLDY    61  61 100 CALM      30.08R
WINCHESTER     CLOUDY    61  59  94 CALM      30.08R
FRONT ROYAL*   CLOUDY    61  61 100 CALM      30.06R
LURAY*         CLOUDY    64  64 100 N5        30.07R
$$

VAZ048-049-060>072-079>083-020300-
CENTRAL AND SOUTH CENTRAL VIRGINIA...AND NORTH CENTRAL NORTH CAROLINA

CITY           SKY/WX    TMP DP  RH WIND       PRES   REMARKS
RICHMOND       CLOUDY    68  63  84 E3        30.05R
CHESTERFIELD*  CLOUDY   N/A N/A N/A CALM      30.06R
PETERSBURG*    CLOUDY    65  64  96 CALM      30.06R
HANOVER        CLOUDY    64  63  96 CALM      30.07R
TAPPAHANNOCK*  PTCLDY    61  59  94 CALM      30.06R
CHARLOTTSVILLE CLOUDY    67  62  84 NE6       30.06R
ORANGE*        CLOUDY    64  61  88 CALM      30.08R
LOUISA*        CLOUDY    66  63  88 CALM      30.05R
FARMVILLE*     CLOUDY    66  64  94 CALM      30.03R
CREWE*         CLOUDY    64  62  93 CALM      30.05R
FORT PICKETT*  CLOUDY    65  64  94 E6        30.05R
LUNENBURG*     MOCLDY    63  62  98 CALM      30.04S
SOUTH HILL*    MOCLDY    61  61 100 CALM      30.09S FOG
LAWRENCEVILLE* CLOUDY    64  63  99 CALM      30.04S
ROANOKE RAPIDS FOG       61  61 100 CALM      30.04R VSB 1/4
RALEIGH        PTCLDY    64  62  93 CALM      30.04R
$$

VAZ088>098-020300-
SOUTHEAST VIRGINIA

CITY           SKY/WX    TMP DP  RH WIND       PRES   REMARKS
NORFOLK        MOCLDY    69  62  78 E7        30.04R
VIRGINIA BEACH CLOUDY    70  63  78 NE6       30.04R
NORFOLK NAVAL  PTCLDY    70  63  78 E7        30.06R
WEST POINT*    CLEAR     64  61  91 CALM      30.07R
NEWPORT NEWS   PTCLDY    66  61  84 CALM      30.04R
LANGLEY AFB    MOCLDY    68  68 100 E6        30.05R
FORT EUSTIS    PTCLDY    65  65 100 N2        30.03R
WILLIAMSBURG*  CLEAR     66  64  94 CALM      30.06R
HR EXEC AP*    CLOUDY    64  63  94 CALM      30.06R
FRANKLIN*      CLOUDY    66  64  94 CALM      30.05R
WAKEFIELD      MOCLDY    66  64  93 CALM      30.05R
$$

VAZ020-022-025-037-045-020300-
WEST CENTRAL AND SOUTHWEST VIRGINIA

CITY           SKY/WX    TMP DP  RH WIND       PRES   REMARKS
STAUNTON*      CLOUDY    66  60  79 CALM      30.09R
HOT SPRINGS VA CLEAR     58  37  45 CALM      30.17R
LYNCHBURG      CLEAR     62  62 100 CALM      30.07R
DANVILLE       CLEAR     65  62  90 E3        30.05R FOG
SOUTH BOSTON*  NOT AVBL
MARTINSVILLE   FOG       61  61 100 CALM      30.08R VSB 3/4
ROANOKE        CLEAR     66  61  84 SE3       30.08R
BLACKSBURG     CLEAR     61  61 100 CALM      30.11R FOG
DUBLIN*        CLEAR     61  55  79 CALM      30.11R
MARION*        CLEAR     57  55  91 CALM      30.14S
HILLSVILLE*    CLEAR     62  58  87 S5        30.12S
RICHLANDS*     CLEAR     67  54  62 CALM      30.12R
WISE*          CLEAR     61  52  72 CALM      30.13R
ABINGDON*      CLEAR     62  57  85 CALM      30.09R
$$

MDZ021>025-VAZ099-100-020300-
SOUTHERN MARYLAND AND THE DELMARVA PENINSULA

CITY           SKY/WX    TMP DP  RH WIND       PRES   REMARKS
PATUXENT RIVER PTCLDY    60  57  89 CALM      30.05R
BAY BRIDGE APT   N/A     64  61  88 E6        30.06R
LEONARDTOWN    CLEAR     59  55  88 CALM      30.07R
DOVER          CLEAR     63  60  90 NE6       30.04R
GEORGETOWN     PTCLDY    63  59  87 VRB7      30.06R
EASTON         NOT AVBL
CAMBRIDGE      CLEAR     61  59  94 CALM      30.05R
SALISBURY      CLEAR     62  57  83 CALM      30.05R
OCEAN CITY     PTCLDY    65  60  84 NE6       30.04R
WALLOPS ISLAND CLEAR     62  60  93 N3        30.05R
ACCOMACK*      FOG       59  57  94 CALM      30.04S VSB 1/2
$$

NCZ012>017-030>032-020300-
EASTERN NORTH CAROLINA

CITY           SKY/WX    TMP DP  RH WIND       PRES   REMARKS
ELIZABETH CITY MOCLDY    68  64  87 NE8       30.04R
AHOSKIE*       PTCLDY    66  63  89 CALM      30.05R
EDENTON*       CLEAR     65  63  93 CALM      30.04R
CURRITUCK*     CLOUDY    70  61  75 NE3       30.05R
KILL DEVIL HLS CLEAR     68  63  82 NE5       30.02R
MANTEO         CLEAR     68  63  83 NE9       30.03S
CAPE HATTERAS  PTCLDY    67  65  93 VRB5      30.02R
TARBORO*       MOCLDY    62  61  96 CALM      30.05R FOG
GOLDSBORO      CLEAR     65  65  98 CALM      30.01R
WASHINGTON     CLEAR     65  64  93 CALM      30.05R
GREENVILLE     CLEAR     63  63 100 CALM      30.05R FOG
NEW BERN       CLEAR     67  64  90 CALM      30.04R
WILMINGTON     CLEAR     67  66  97 CALM      30.02S
$$

VAZ048-020300-
ELSEWHERE

CITY           SKY/WX    TMP DP  RH WIND       PRES   REMARKS
HARRISBURG PA  PTCLDY    62  58  86 NE3       30.07R
BALTIMORE      PTCLDY    63  58  83 CALM      30.06R
ANNAPOLIS      CLEAR     65  62  90 CALM      30.05R
ANDREWS AFB    CLEAR     61  61  99 NE2       30.06R FOG
WILMINGTON DE  PTCLDY    64  58  80 E3        30.08R
PHILADELPHIA   MOCLDY    66  57  72 NE7G17    30.07R
WILDWOOD NJ*   CLEAR     59  55  88 CALM      30.06S
ATLANTIC CITY  CLOUDY    62  59  90 N6        30.06R
HENDERSON NC   FOG       62  61  95 CALM      30.05R VSB 1
GREENSBORO     PTCLDY    67  63  87 CALM      30.05R
ROCKY MOUNT    FOG       63  62  97 CALM      30.04R VSB 1/2
FAYETTEVILLE   CLEAR     67  65  93 CALM      30.02S
CHARLOTTE      PTCLDY    73  63  70 E8        30.04R
$$

VAZ100-020300-
MARINE

STATION/POSITION TIME  TEMP    WIND        PRES    WAVE   SWELL
                       AIR SEA DIR/SP/G            HT/PER HT/PER
                 (UTC) (F)     (DEG/KT/KT) (MB)    (FT/S) (FT/S)
44066 TX TWR #4  0200   65 70   10/ 21/ 23 1014.8R   7/ 8   2/12
CAPE MAY NJ      0100   63 73   30/  2/  3 1017.1R
LEWES DE         0100   66 71   50/ 14/ 15 1017.2R
15NM E FENWICK I 0200   67 70              1016.8R   5/ 7
OCEAN-CITY-INLET 0100   67 71   60/  3/  7 1016.8R
WACHAPREAGUE VA  0100   65 73  350/  2/  3 1017.1R
THOMAS POINT MD  0200   69 72  290/  4/  5 1018.7R
GOOSES REEF MD   0100   71      40/  6/  6 1017.7R
COVE POINT MD    0100   69      80/  6/  7 1017.2R
SOLOMONS ISLAND  0100      72                N/A
BISHOPS HEAD MD  0100   69 72   70/  5/  7 1016.9R
PINEY POINT MD   0100           50/  4/  4   N/A
POTOMAC MD       0100   71     100/  8/ 10 1016.5R
CAMBRIDGE MD     0100   67 71  140/  1/  2 1017.2R
LEWISETTA VA     0100   70 73   50/  4/  5 1017.0R
RAPPAHANNOCK LGT 0100          110/  5/  5 1017.7R
STINGRAY PT      0100   71     100/ 10/ 14   N/A
YORK RVR RNG VA  0100   70     110/  9/ 10 1016.6R
YORKTOWN VA      0100   70 73   50/  6/  7 1016.8R
JAMESTOWN VA     0100   68     120/  4/  4   N/A
DOMINION TERM VA 0100   71      70/  6/  8 1017.2R
KIPTOPEKE VA     0100      76   70/  3/  4   N/A
CHES BAY BRIDGE  0100   70 73   50/ 10/ 12 1016.6R
CHESAPEAKE LGHT  0100   69      50/ 12/ 12 1017.5R
WILLOUBY STN VA  0100   70      50/  8/  9 1015.8R
S CRANEY ISL VA  0100           50/  5/  6 1016.8R
1ST LANDING BUOY 0100   71      60/ 10/ 12 1016.6R
64NM E OF VA BCH 0200   69 71   10/ 14/ 16 1016.1R   5/ 7   3/ 7
DUCK PIER NC     0100   70 73   40/ 11/ 12 1016.1R
OREGON INLET NC  0100   69 74   30/ 13/ 16 1016.4R
HATTERAS NC      0100   70 75   40/  7/ 11 1016.9R
DIAMOND SHLS NC  0200   71      10/ 16/ 17 1016.0R   2/ 8   2/ 8
CAPE LOOKOUT NC  0100   74      50/ 10/ 12 1016.4R
$$



USA.gov is the U.S. government's official web portal to all federal, state and local government web resources and services.